Time,TemperatureF,DewpointF,PressureIn,WindDirection,WindDirectionDegrees,WindSpeedMPH,WindSpeedGustMPH,Humidity,HourlyPrecipIn,Conditions,Clouds,dailyrainin,SolarRadiationWatts/m^2,SoftwareType,DateUTC
2013-08-30 00:02:00,77.2,73.8,29.92,WSW,237,0.0,0.0,89,0.00,,,0.00,0.0,meteohub,2013-08-30 04:02:00,
2013-08-30 00:03:00,77.2,73.8,29.92,WSW,237,0.0,0.0,89,0.00,,,0.00,0.0,meteohub,2013-08-30 04:03:00,
2013-08-30 00:06:00,77.2,73.9,29.92,WSW,237,0.0,0.0,90,0.00,,,0.00,0.0,meteohub,2013-08-30 04:06:00,
2013-08-30 00:07:00,77.2,73.9,29.92,WSW,237,0.0,0.0,90,0.00,,,0.00,0.0,meteohub,2013-08-30 04:07:00,
2013-08-30 00:12:00,77.0,73.8,29.92,WSW,237,0.0,0.0,90,0.00,,,0.00,0.0,meteohub,2013-08-30 04:12:00,
2013-08-30 00:18:00,76.8,73.6,29.92,WSW,237,0.0,0.0,90,0.00,,,0.00,0.0,meteohub,2013-08-30 04:18:00,
2013-08-30 00:24:00,76.6,73.4,29.92,WSW,237,0.0,0.0,90,0.00,,,0.00,0.0,meteohub,2013-08-30 04:24:00,
2013-08-30 00:31:00,76.6,73.8,29.92,WSW,237,0.0,0.0,91,0.00,,,0.00,0.0,meteohub,2013-08-30 04:31:00,
2013-08-30 00:37:00,76.5,73.6,29.92,WSW,237,0.0,0.0,91,0.00,,,0.00,0.0,meteohub,2013-08-30 04:37:00,
2013-08-30 00:42:00,76.5,73.6,29.92,WSW,237,0.0,0.0,91,0.00,,,0.00,0.0,meteohub,2013-08-30 04:42:00,
2013-08-30 00:49:00,76.5,73.6,29.92,WSW,237,0.0,1.0,91,0.00,,,0.00,0.0,meteohub,2013-08-30 04:49:00,
2013-08-30 00:55:00,76.3,73.4,29.92,WSW,247,0.0,1.0,91,0.00,,,0.00,0.0,meteohub,2013-08-30 04:55:00,
2013-08-30 01:01:00,76.5,73.2,29.92,West,261,0.0,2.0,90,0.00,,,0.00,0.0,meteohub,2013-08-30 05:01:00,
2013-08-30 01:07:00,76.6,73.4,29.92,West,261,1.0,2.0,90,0.00,,,0.00,0.0,meteohub,2013-08-30 05:07:00,
2013-08-30 01:14:00,77.2,73.8,29.91,West,261,0.0,3.0,89,0.00,,,0.00,0.0,meteohub,2013-08-30 05:14:00,
2013-08-30 01:20:00,77.4,73.9,29.92,West,261,0.0,3.0,89,0.00,,,0.00,0.0,meteohub,2013-08-30 05:20:00,
2013-08-30 01:26:00,77.4,73.6,29.92,West,261,1.0,3.0,88,0.00,,,0.00,0.0,meteohub,2013-08-30 05:26:00,
2013-08-30 01:32:00,77.5,73.8,29.91,West,261,1.0,2.0,88,0.00,,,0.00,0.0,meteohub,2013-08-30 05:32:00,
2013-08-30 01:38:00,77.5,73.8,29.92,West,261,1.0,2.0,88,0.00,,,0.00,0.0,meteohub,2013-08-30 05:38:00,
2013-08-30 01:45:00,77.5,73.8,29.92,West,261,0.0,2.0,88,0.00,,,0.00,0.0,meteohub,2013-08-30 05:45:00,
2013-08-30 01:51:00,77.5,73.8,29.91,West,261,1.0,3.0,88,0.00,,,0.00,0.0,meteohub,2013-08-30 05:51:00,
2013-08-30 01:57:00,77.5,73.8,29.92,West,261,1.0,3.0,88,0.00,,,0.00,0.0,meteohub,2013-08-30 05:57:00,
2013-08-30 02:02:00,77.5,73.8,29.91,West,261,0.0,2.0,88,0.00,,,0.00,0.0,meteohub,2013-08-30 06:02:00,
2013-08-30 02:07:00,77.5,73.8,29.92,West,261,0.0,2.0,88,0.00,,,0.00,0.0,meteohub,2013-08-30 06:07:00,
2013-08-30 02:13:00,77.5,73.8,29.91,West,261,0.0,2.0,88,0.00,,,0.00,0.0,meteohub,2013-08-30 06:13:00,
2013-08-30 02:19:00,77.4,73.6,29.91,West,261,1.0,2.0,88,0.00,,,0.00,0.0,meteohub,2013-08-30 06:19:00,
2013-08-30 02:25:00,77.4,73.6,29.91,West,261,1.0,2.0,88,0.00,,,0.00,0.0,meteohub,2013-08-30 06:25:00,
2013-08-30 02:31:00,77.2,73.8,29.91,West,261,1.0,2.0,89,0.00,,,0.00,0.0,meteohub,2013-08-30 06:31:00,
2013-08-30 02:37:00,77.2,73.8,29.91,West,261,1.0,2.0,89,0.00,,,0.00,0.0,meteohub,2013-08-30 06:37:00,
2013-08-30 02:42:00,77.0,73.6,29.91,West,261,1.0,2.0,89,0.00,,,0.00,0.0,meteohub,2013-08-30 06:42:00,
2013-08-30 02:47:00,77.0,73.6,29.90,West,261,1.0,2.0,89,0.00,,,0.00,0.0,meteohub,2013-08-30 06:47:00,
2013-08-30 02:52:00,76.8,73.4,29.90,West,261,1.0,2.0,89,0.00,,,0.00,0.0,meteohub,2013-08-30 06:52:00,
2013-08-30 02:57:00,76.8,73.4,29.90,SW,221,1.0,2.0,89,0.00,,,0.00,0.0,meteohub,2013-08-30 06:57:00,
2013-08-30 03:02:00,76.8,73.4,29.90,West,266,0.0,2.0,89,0.00,,,0.00,0.0,meteohub,2013-08-30 07:02:00,
2013-08-30 03:07:00,76.8,73.4,29.90,WSW,257,2.0,2.0,89,0.00,,,0.00,0.0,meteohub,2013-08-30 07:07:00,
2013-08-30 03:14:00,76.8,73.4,29.90,West,271,1.0,2.0,89,0.00,,,0.00,0.0,meteohub,2013-08-30 07:14:00,
2013-08-30 03:20:00,76.8,73.4,29.90,West,264,0.0,3.0,89,0.00,,,0.00,0.0,meteohub,2013-08-30 07:20:00,
2013-08-30 03:27:00,77.0,73.2,29.90,West,267,2.0,3.0,88,0.00,,,0.00,0.0,meteohub,2013-08-30 07:27:00,
2013-08-30 03:32:00,77.0,73.2,29.90,West,268,1.0,4.0,88,0.00,,,0.00,0.0,meteohub,2013-08-30 07:32:00,
2013-08-30 03:39:00,77.0,73.2,29.90,West,267,0.0,4.0,88,0.00,,,0.00,0.0,meteohub,2013-08-30 07:39:00,
2013-08-30 03:45:00,76.8,73.0,29.90,WSW,254,1.0,4.0,88,0.00,,,0.00,0.0,meteohub,2013-08-30 07:45:00,
2013-08-30 03:51:00,76.8,73.0,29.90,West,273,2.0,3.0,88,0.00,,,0.00,0.0,meteohub,2013-08-30 07:51:00,
2013-08-30 03:57:00,76.8,73.4,29.90,West,273,0.0,3.0,89,0.00,,,0.00,0.0,meteohub,2013-08-30 07:57:00,
2013-08-30 04:02:00,76.6,73.2,29.90,West,273,1.0,3.0,89,0.00,,,0.00,0.0,meteohub,2013-08-30 08:02:00,
2013-08-30 04:07:00,76.6,73.2,29.90,West,273,1.0,3.0,89,0.00,,,0.00,0.0,meteohub,2013-08-30 08:07:00,
2013-08-30 04:12:00,76.5,73.0,29.91,West,273,1.0,2.0,89,0.00,,,0.00,0.0,meteohub,2013-08-30 08:12:00,
2013-08-30 04:17:00,76.5,73.0,29.90,West,277,1.0,2.0,89,0.00,,,0.00,0.0,meteohub,2013-08-30 08:17:00,
2013-08-30 04:22:00,76.3,72.9,29.91,West,277,0.0,2.0,89,0.00,,,0.00,0.0,meteohub,2013-08-30 08:22:00,
2013-08-30 04:27:00,76.3,73.0,29.90,West,277,1.0,2.0,90,0.00,,,0.00,0.0,meteohub,2013-08-30 08:27:00,
2013-08-30 04:32:00,76.3,72.9,29.90,WSW,257,0.0,2.0,89,0.00,,,0.00,0.0,meteohub,2013-08-30 08:32:00,
2013-08-30 04:37:00,76.3,73.0,29.90,WSW,257,1.0,2.0,90,0.00,,,0.00,0.0,meteohub,2013-08-30 08:37:00,
2013-08-30 04:42:00,76.1,72.9,29.90,WSW,257,1.0,2.0,90,0.00,,,0.00,0.0,meteohub,2013-08-30 08:42:00,
2013-08-30 04:47:00,75.9,72.9,29.90,WSW,257,1.0,2.0,90,0.00,,,0.00,0.0,meteohub,2013-08-30 08:47:00,
2013-08-30 04:52:00,75.9,72.9,29.89,West,259,1.0,2.0,90,0.00,,,0.00,0.0,meteohub,2013-08-30 08:52:00,
2013-08-30 04:57:00,75.7,72.9,29.89,West,259,1.0,2.0,91,0.00,,,0.00,0.0,meteohub,2013-08-30 08:57:00,
2013-08-30 05:02:00,75.7,72.9,29.89,West,268,1.0,2.0,91,0.00,,,0.00,0.0,meteohub,2013-08-30 09:02:00,
2013-08-30 05:07:00,75.6,72.7,29.90,West,268,0.0,2.0,91,0.00,,,0.00,0.0,meteohub,2013-08-30 09:07:00,
2013-08-30 05:15:00,75.6,72.7,29.90,West,268,1.0,2.0,91,0.00,,,0.00,0.0,meteohub,2013-08-30 09:15:00,
2013-08-30 05:21:00,75.4,72.5,29.90,West,268,0.0,3.0,91,0.00,,,0.00,0.0,meteohub,2013-08-30 09:21:00,
2013-08-30 05:27:00,75.4,72.5,29.90,West,268,0.0,3.0,91,0.00,,,0.00,0.0,meteohub,2013-08-30 09:27:00,
2013-08-30 05:32:00,75.4,72.9,29.90,West,268,0.0,3.0,92,0.00,,,0.00,0.0,meteohub,2013-08-30 09:32:00,
2013-08-30 05:39:00,75.0,72.5,29.90,West,268,0.0,1.0,92,0.00,,,0.00,0.0,meteohub,2013-08-30 09:39:00,
2013-08-30 05:46:00,75.0,72.5,29.90,West,268,0.0,1.0,92,0.00,,,0.00,0.0,meteohub,2013-08-30 09:46:00,
2013-08-30 05:52:00,74.8,72.3,29.90,West,268,0.0,1.0,92,0.00,,,0.00,0.0,meteohub,2013-08-30 09:52:00,
2013-08-30 05:57:00,74.8,72.3,29.90,West,268,0.0,1.0,92,0.00,,,0.00,0.0,meteohub,2013-08-30 09:57:00,
2013-08-30 06:02:00,74.8,72.3,29.90,West,268,0.0,1.0,92,0.00,,,0.00,0.0,meteohub,2013-08-30 10:02:00,
2013-08-30 06:07:00,74.7,72.1,29.90,West,268,0.0,1.0,92,0.00,,,0.00,0.0,meteohub,2013-08-30 10:07:00,
2013-08-30 06:12:00,74.7,72.1,29.90,West,268,0.0,1.0,92,0.00,,,0.00,0.0,meteohub,2013-08-30 10:12:00,
2013-08-30 06:17:00,74.7,72.1,29.90,West,268,0.0,1.0,92,0.00,,,0.00,0.0,meteohub,2013-08-30 10:17:00,
2013-08-30 06:22:00,74.5,72.3,29.90,West,268,0.0,1.0,93,0.00,,,0.00,0.0,meteohub,2013-08-30 10:22:00,
2013-08-30 06:27:00,74.5,72.3,29.91,West,268,0.0,1.0,93,0.00,,,0.00,0.0,meteohub,2013-08-30 10:27:00,
2013-08-30 06:32:00,74.3,72.1,29.91,West,268,0.0,1.0,93,0.00,,,0.00,0.0,meteohub,2013-08-30 10:32:00,
2013-08-30 06:37:00,74.1,72.0,29.91,West,268,0.0,1.0,93,0.00,,,0.00,0.0,meteohub,2013-08-30 10:37:00,
2013-08-30 06:42:00,74.1,72.0,29.91,West,268,0.0,1.0,93,0.00,,,0.00,0.0,meteohub,2013-08-30 10:42:00,
2013-08-30 06:47:00,73.9,71.8,29.91,West,268,0.0,1.0,93,0.00,,,0.00,0.0,meteohub,2013-08-30 10:47:00,
2013-08-30 06:52:00,73.9,72.1,29.91,West,268,0.0,1.0,94,0.00,,,0.00,0.0,meteohub,2013-08-30 10:52:00,
2013-08-30 06:57:00,73.9,72.1,29.91,West,268,0.0,1.0,94,0.00,,,0.00,0.0,meteohub,2013-08-30 10:57:00,
2013-08-30 07:02:00,73.8,72.0,29.92,West,268,0.0,1.0,94,0.00,,,0.00,0.0,meteohub,2013-08-30 11:02:00,
2013-08-30 07:07:00,73.8,72.0,29.92,West,268,0.0,1.0,94,0.00,,,0.00,0.0,meteohub,2013-08-30 11:07:00,
2013-08-30 07:12:00,73.8,72.0,29.92,West,268,0.0,1.0,94,0.00,,,0.00,5.0,meteohub,2013-08-30 11:12:00,
2013-08-30 07:17:00,73.8,72.0,29.92,West,268,0.0,1.0,94,0.00,,,0.00,14.0,meteohub,2013-08-30 11:17:00,
2013-08-30 07:22:00,73.8,72.0,29.92,West,268,1.0,1.0,94,0.00,,,0.00,21.0,meteohub,2013-08-30 11:22:00,
2013-08-30 07:27:00,73.8,72.3,29.92,West,268,1.0,1.0,95,0.00,,,0.00,30.0,meteohub,2013-08-30 11:27:00,
2013-08-30 07:32:00,73.8,72.3,29.92,West,268,0.0,1.0,95,0.00,,,0.00,35.0,meteohub,2013-08-30 11:32:00,
2013-08-30 07:37:00,73.9,72.5,29.93,West,268,0.0,1.0,95,0.00,,,0.00,42.0,meteohub,2013-08-30 11:37:00,
2013-08-30 07:43:00,74.1,72.9,29.93,West,268,0.0,1.0,96,0.00,,,0.00,49.0,meteohub,2013-08-30 11:43:00,
2013-08-30 07:49:00,74.1,72.9,29.93,West,268,0.0,1.0,96,0.00,,,0.00,44.0,meteohub,2013-08-30 11:49:00,
2013-08-30 07:56:00,74.5,73.2,29.94,West,268,0.0,1.0,96,0.00,,,0.00,42.0,meteohub,2013-08-30 11:56:00,
2013-08-30 08:02:00,74.7,73.2,29.94,West,267,0.0,1.0,95,0.00,,,0.00,54.0,meteohub,2013-08-30 12:02:00,
2013-08-30 08:07:00,74.7,73.2,29.94,West,268,0.0,1.0,95,0.00,,,0.00,62.0,meteohub,2013-08-30 12:07:00,
2013-08-30 08:14:00,75.0,73.4,29.94,West,268,0.0,1.0,95,0.00,,,0.00,97.0,meteohub,2013-08-30 12:14:00,
2013-08-30 08:20:00,75.4,73.6,29.94,West,267,0.0,1.0,94,0.00,,,0.00,109.0,meteohub,2013-08-30 12:20:00,
2013-08-30 08:27:00,75.7,73.9,29.94,WSW,250,1.0,1.0,94,0.00,,,0.00,125.0,meteohub,2013-08-30 12:27:00,
2013-08-30 08:32:00,76.3,74.1,29.94,WSW,250,1.0,1.0,93,0.00,,,0.00,134.0,meteohub,2013-08-30 12:32:00,
2013-08-30 08:39:00,77.2,74.7,29.95,WSW,240,0.0,3.0,92,0.00,,,0.00,134.0,meteohub,2013-08-30 12:39:00,
2013-08-30 08:45:00,78.3,75.0,29.95,WSW,240,0.0,3.0,90,0.00,,,0.00,148.0,meteohub,2013-08-30 12:45:00,
2013-08-30 08:52:00,78.8,75.2,29.95,WSW,242,0.0,3.0,89,0.00,,,0.00,160.0,meteohub,2013-08-30 12:52:00,
2013-08-30 08:57:00,79.2,75.4,29.95,WSW,243,1.0,3.0,88,0.00,,,0.00,171.0,meteohub,2013-08-30 12:57:00,
2013-08-30 09:02:00,79.2,75.4,29.95,WSW,244,1.0,3.0,88,0.00,,,0.00,172.0,meteohub,2013-08-30 13:02:00,
2013-08-30 09:07:00,79.5,75.4,29.95,WSW,242,2.0,3.0,87,0.00,,,0.00,169.0,meteohub,2013-08-30 13:07:00,
2013-08-30 09:12:00,79.9,75.4,29.95,SSW,206,4.0,4.0,86,0.00,,,0.00,192.0,meteohub,2013-08-30 13:12:00,
2013-08-30 09:17:00,80.2,75.7,29.95,SW,236,2.0,3.0,86,0.00,,,0.00,281.0,meteohub,2013-08-30 13:17:00,
2013-08-30 09:22:00,80.8,76.3,29.95,West,268,1.0,3.0,86,0.00,,,0.00,390.0,meteohub,2013-08-30 13:22:00,
2013-08-30 09:27:00,81.1,75.9,29.95,WSW,241,1.0,3.0,84,0.00,,,0.00,371.0,meteohub,2013-08-30 13:27:00,
2013-08-30 09:32:00,81.3,76.1,29.95,SW,215,1.0,4.0,84,0.00,,,0.00,383.0,meteohub,2013-08-30 13:32:00,
2013-08-30 09:37:00,81.9,76.8,29.96,NNW,328,0.0,4.0,85,0.00,,,0.00,183.0,meteohub,2013-08-30 13:37:00,
2013-08-30 09:42:00,82.2,76.8,29.96,SW,217,2.0,4.0,84,0.00,,,0.00,139.0,meteohub,2013-08-30 13:42:00,
2013-08-30 09:47:00,82.2,76.1,29.95,SW,229,0.0,4.0,82,0.00,,,0.00,135.0,meteohub,2013-08-30 13:47:00,
2013-08-30 09:52:00,82.6,76.1,29.95,West,270,2.0,4.0,81,0.00,,,0.00,134.0,meteohub,2013-08-30 13:52:00,
2013-08-30 09:57:00,82.8,75.9,29.95,NW,322,0.0,3.0,80,0.00,,,0.00,148.0,meteohub,2013-08-30 13:57:00,
2013-08-30 10:02:00,82.9,76.5,29.95,SW,215,3.0,3.0,81,0.00,,,0.00,181.0,meteohub,2013-08-30 14:02:00,
2013-08-30 10:09:00,82.9,76.1,29.95,WSW,254,2.0,3.0,80,0.00,,,0.00,149.0,meteohub,2013-08-30 14:09:00,
2013-08-30 10:15:00,83.7,76.5,29.95,WSW,254,2.0,3.0,79,0.00,,,0.00,149.0,meteohub,2013-08-30 14:15:00,
2013-08-30 10:22:00,83.5,76.3,29.95,WSW,254,1.0,3.0,79,0.00,,,0.00,148.0,meteohub,2013-08-30 14:22:00,
2013-08-30 10:27:00,83.7,76.8,29.95,NNE,13,0.0,3.0,80,0.00,,,0.00,179.0,meteohub,2013-08-30 14:27:00,
2013-08-30 10:32:00,84.2,76.6,29.95,WSW,254,0.0,3.0,78,0.00,,,0.00,174.0,meteohub,2013-08-30 14:32:00,
2013-08-30 10:37:00,84.4,77.2,29.95,NNE,28,2.0,3.0,79,0.00,,,0.00,160.0,meteohub,2013-08-30 14:37:00,
2013-08-30 10:42:00,84.6,76.5,29.95,NNE,30,1.0,3.0,77,0.00,,,0.00,192.0,meteohub,2013-08-30 14:42:00,
2013-08-30 10:47:00,85.5,78.3,29.95,NNW,348,1.0,3.0,79,0.00,,,0.00,422.0,meteohub,2013-08-30 14:47:00,
2013-08-30 10:52:00,85.8,77.7,29.95,ESE,115,0.0,3.0,77,0.00,,,0.00,570.0,meteohub,2013-08-30 14:52:00,
2013-08-30 10:57:00,85.5,77.4,29.95,WNW,290,0.0,3.0,77,0.00,,,0.00,631.0,meteohub,2013-08-30 14:57:00,
2013-08-30 11:02:00,85.3,77.2,29.95,SE,132,1.0,3.0,77,0.00,,,0.00,649.0,meteohub,2013-08-30 15:02:00,
2013-08-30 11:07:00,85.8,77.0,29.95,WSW,246,0.0,3.0,75,0.00,,,0.00,647.0,meteohub,2013-08-30 15:07:00,
2013-08-30 11:12:00,86.2,77.4,29.95,West,272,1.0,4.0,75,0.00,,,0.00,673.0,meteohub,2013-08-30 15:12:00,
2013-08-30 11:17:00,86.4,77.5,29.95,ENE,59,0.0,4.0,75,0.00,,,0.00,686.0,meteohub,2013-08-30 15:17:00,
2013-08-30 11:22:00,87.4,78.6,29.95,NW,317,1.0,4.0,75,0.00,,,0.00,698.0,meteohub,2013-08-30 15:22:00,
2013-08-30 11:27:00,88.0,77.9,29.96,South,170,2.0,4.0,72,0.00,,,0.00,715.0,meteohub,2013-08-30 15:27:00,
2013-08-30 11:32:00,87.6,77.5,29.96,SW,217,1.0,4.0,72,0.00,,,0.00,722.0,meteohub,2013-08-30 15:32:00,
2013-08-30 11:37:00,88.5,78.8,29.96,NNW,344,0.0,3.0,73,0.00,,,0.00,731.0,meteohub,2013-08-30 15:37:00,
2013-08-30 11:42:00,88.5,78.8,29.95,WNW,298,0.0,3.0,73,0.00,,,0.00,744.0,meteohub,2013-08-30 15:42:00,
2013-08-30 11:48:00,88.3,77.7,29.95,NW,321,1.0,3.0,71,0.00,,,0.00,765.0,meteohub,2013-08-30 15:48:00,
2013-08-30 11:54:00,89.1,78.1,29.95,West,262,2.0,4.0,70,0.00,,,0.00,784.0,meteohub,2013-08-30 15:54:00,
2013-08-30 12:00:00,89.6,76.6,29.95,SW,225,1.0,4.0,66,0.00,,,0.00,784.0,meteohub,2013-08-30 16:00:00,
2013-08-30 12:07:00,89.8,79.2,29.94,NNE,30,0.0,4.0,71,0.00,,,0.00,858.0,meteohub,2013-08-30 16:07:00,
2013-08-30 12:12:00,88.5,77.9,29.95,SW,225,1.0,4.0,71,0.00,,,0.00,274.0,meteohub,2013-08-30 16:12:00,
2013-08-30 12:17:00,89.1,78.4,29.95,West,273,1.0,4.0,71,0.00,,,0.00,872.0,meteohub,2013-08-30 16:17:00,
2013-08-30 12:22:00,90.5,79.3,29.95,WNW,290,1.0,4.0,70,0.00,,,0.00,893.0,meteohub,2013-08-30 16:22:00,
2013-08-30 12:27:00,90.5,77.5,29.94,NNE,29,1.0,4.0,66,0.00,,,0.00,930.0,meteohub,2013-08-30 16:27:00,
2013-08-30 12:32:00,90.1,76.8,29.94,WSW,251,2.0,4.0,65,0.00,,,0.00,937.0,meteohub,2013-08-30 16:32:00,
2013-08-30 12:37:00,91.2,77.4,29.94,SSW,212,1.0,4.0,64,0.00,,,0.00,930.0,meteohub,2013-08-30 16:37:00,
2013-08-30 12:44:00,91.2,76.8,29.94,SE,138,1.0,4.0,63,0.00,,,0.00,946.0,meteohub,2013-08-30 16:44:00,
2013-08-30 12:50:00,91.2,77.7,29.94,SW,229,3.0,4.0,65,0.00,,,0.00,362.0,meteohub,2013-08-30 16:50:00,
2013-08-30 12:56:00,90.7,76.8,29.93,West,272,1.0,4.0,64,0.00,,,0.00,241.0,meteohub,2013-08-30 16:56:00,
2013-08-30 13:02:00,90.0,77.9,29.93,WSW,238,0.0,4.0,68,0.00,,,0.00,246.0,meteohub,2013-08-30 17:02:00,
2013-08-30 13:08:00,90.0,76.1,29.93,WSW,258,1.0,4.0,64,0.00,,,0.00,397.0,meteohub,2013-08-30 17:08:00,
2013-08-30 13:15:00,90.9,76.1,29.92,SE,136,0.0,3.0,62,0.00,,,0.00,983.0,meteohub,2013-08-30 17:15:00,
2013-08-30 13:21:00,91.8,76.5,29.92,ENE,78,2.0,3.0,61,0.00,,,0.00,984.0,meteohub,2013-08-30 17:21:00,
2013-08-30 13:27:00,92.1,76.6,29.91,WSW,257,0.0,3.0,61,0.00,,,0.00,944.0,meteohub,2013-08-30 17:27:00,
2013-08-30 13:32:00,91.6,77.7,29.91,West,277,1.0,4.0,64,0.00,,,0.00,930.0,meteohub,2013-08-30 17:32:00,
2013-08-30 13:37:00,91.6,77.2,29.91,WNW,287,2.0,4.0,63,0.00,,,0.00,967.0,meteohub,2013-08-30 17:37:00,
2013-08-30 13:42:00,91.8,74.3,29.91,WSW,246,1.0,4.0,57,0.00,,,0.00,939.0,meteohub,2013-08-30 17:42:00,
2013-08-30 13:47:00,91.2,77.4,29.91,South,177,0.0,4.0,64,0.00,,,0.00,1034.0,meteohub,2013-08-30 17:47:00,
2013-08-30 13:52:00,91.9,75.6,29.91,SE,139,0.0,5.0,59,0.00,,,0.00,956.0,meteohub,2013-08-30 17:52:00,
2013-08-30 13:58:00,91.4,75.6,29.90,WNW,295,2.0,5.0,60,0.00,,,0.00,269.0,meteohub,2013-08-30 17:58:00,
2013-08-30 14:04:00,90.1,74.8,29.91,ESE,117,0.0,5.0,61,0.00,,,0.00,202.0,meteohub,2013-08-30 18:04:00,
2013-08-30 14:10:00,89.6,77.5,29.90,WSW,252,0.0,5.0,68,0.00,,,0.00,125.0,meteohub,2013-08-30 18:10:00,
2013-08-30 14:16:00,88.5,78.3,29.90,South,190,1.0,4.0,72,0.00,,,0.00,100.0,meteohub,2013-08-30 18:16:00,
2013-08-30 14:22:00,88.2,77.5,29.90,South,190,0.0,4.0,71,0.00,,,0.00,91.0,meteohub,2013-08-30 18:22:00,
2013-08-30 14:27:00,87.6,79.2,29.90,South,190,0.0,4.0,76,0.00,,,0.00,93.0,meteohub,2013-08-30 18:27:00,
2013-08-30 14:32:00,87.1,79.0,29.90,South,190,0.0,2.0,77,0.00,,,0.00,100.0,meteohub,2013-08-30 18:32:00,
2013-08-30 14:37:00,86.7,79.3,29.90,South,190,0.0,2.0,79,0.00,,,0.00,116.0,meteohub,2013-08-30 18:37:00,
2013-08-30 14:42:00,86.7,79.3,29.90,South,190,0.0,2.0,79,0.00,,,0.00,113.0,meteohub,2013-08-30 18:42:00,
2013-08-30 14:47:00,86.9,79.2,29.89,South,190,0.0,2.0,78,0.00,,,0.00,104.0,meteohub,2013-08-30 18:47:00,
2013-08-30 14:53:00,86.5,78.8,29.89,South,190,0.0,0.0,78,0.00,,,0.00,114.0,meteohub,2013-08-30 18:53:00,
2013-08-30 15:00:00,86.4,79.0,29.89,South,190,0.0,0.0,79,0.00,,,0.00,148.0,meteohub,2013-08-30 19:00:00,
2013-08-30 15:06:00,85.8,78.6,29.89,South,190,0.0,0.0,79,0.00,,,0.00,190.0,meteohub,2013-08-30 19:06:00,
2013-08-30 15:12:00,86.5,80.1,29.89,South,190,0.0,2.0,81,0.00,,,0.00,241.0,meteohub,2013-08-30 19:12:00,
2013-08-30 15:18:00,87.4,79.0,29.88,South,190,1.0,2.0,76,0.00,,,0.00,446.0,meteohub,2013-08-30 19:18:00,
2013-08-30 15:24:00,89.1,78.4,29.87,South,190,0.0,2.0,71,0.00,,,0.00,536.0,meteohub,2013-08-30 19:24:00,
2013-08-30 15:30:00,89.6,77.5,29.87,SW,225,1.0,2.0,68,0.00,,,0.00,420.0,meteohub,2013-08-30 19:30:00,
2013-08-30 15:37:00,89.8,78.3,29.86,West,262,0.0,2.0,69,0.00,,,0.00,452.0,meteohub,2013-08-30 19:37:00,
2013-08-30 15:42:00,90.3,75.9,29.86,WSW,237,1.0,2.0,63,0.00,,,0.00,601.0,meteohub,2013-08-30 19:42:00,
2013-08-30 15:47:00,91.2,76.8,29.87,WNW,301,1.0,2.0,63,0.00,,,0.00,633.0,meteohub,2013-08-30 19:47:00,
2013-08-30 15:52:00,91.9,77.0,29.87,WNW,291,1.0,2.0,62,0.00,,,0.00,675.0,meteohub,2013-08-30 19:52:00,
2013-08-30 15:58:00,91.6,76.3,29.87,West,264,1.0,2.0,61,0.00,,,0.00,633.0,meteohub,2013-08-30 19:58:00,
2013-08-30 16:04:00,92.1,77.2,29.87,NNE,14,0.0,2.0,62,0.00,,,0.00,615.0,meteohub,2013-08-30 20:04:00,
2013-08-30 16:11:00,91.8,79.7,29.86,ESE,105,1.0,2.0,68,0.00,,,0.00,587.0,meteohub,2013-08-30 20:11:00,
2013-08-30 16:17:00,90.9,79.3,29.87,NNE,17,1.0,3.0,69,0.00,,,0.00,501.0,meteohub,2013-08-30 20:17:00,
2013-08-30 16:22:00,90.9,80.1,29.86,NNE,23,1.0,3.0,71,0.00,,,0.00,346.0,meteohub,2013-08-30 20:22:00,
2013-08-30 16:27:00,90.3,79.2,29.87,NNE,19,2.0,3.0,70,0.00,,,0.00,617.0,meteohub,2013-08-30 20:27:00,
2013-08-30 16:32:00,90.3,79.7,29.86,NE,56,3.0,5.0,71,0.00,,,0.00,278.0,meteohub,2013-08-30 20:32:00,
2013-08-30 16:37:00,90.0,78.8,29.87,NNE,15,0.0,5.0,70,0.00,,,0.00,206.0,meteohub,2013-08-30 20:37:00,
2013-08-30 16:42:00,89.2,79.9,29.87,ENE,75,1.0,5.0,74,0.00,,,0.00,199.0,meteohub,2013-08-30 20:42:00,
2013-08-30 16:47:00,88.5,79.2,29.87,ENE,72,2.0,5.0,74,0.00,,,0.00,209.0,meteohub,2013-08-30 20:47:00,
2013-08-30 16:52:00,88.0,79.0,29.87,NNE,23,1.0,5.0,75,0.00,,,0.00,167.0,meteohub,2013-08-30 20:52:00,
2013-08-30 16:57:00,87.6,78.6,29.86,North,355,0.0,5.0,75,0.00,,,0.00,236.0,meteohub,2013-08-30 20:57:00,
2013-08-30 17:02:00,88.2,79.2,29.86,ENE,69,2.0,5.0,75,0.00,,,0.00,364.0,meteohub,2013-08-30 21:02:00,
2013-08-30 17:07:00,88.2,77.9,29.86,ESE,112,1.0,5.0,72,0.00,,,0.00,327.0,meteohub,2013-08-30 21:07:00,
2013-08-30 17:12:00,88.0,78.3,29.86,NE,38,2.0,6.0,73,0.00,,,0.00,316.0,meteohub,2013-08-30 21:12:00,
2013-08-30 17:17:00,87.6,77.0,29.88,NE,56,2.0,6.0,71,0.00,,,0.00,281.0,meteohub,2013-08-30 21:17:00,
2013-08-30 17:22:00,87.4,77.4,29.88,NE,44,0.0,6.0,72,0.00,,,0.00,174.0,meteohub,2013-08-30 21:22:00,
2013-08-30 17:27:00,86.7,76.1,29.88,NE,53,2.0,6.0,71,0.00,,,0.00,146.0,meteohub,2013-08-30 21:27:00,
2013-08-30 17:32:00,86.2,76.5,29.88,ENE,59,0.0,4.0,73,0.00,,,0.00,158.0,meteohub,2013-08-30 21:32:00,
2013-08-30 17:37:00,85.8,75.7,29.88,NE,51,1.0,4.0,72,0.00,,,0.00,163.0,meteohub,2013-08-30 21:37:00,
2013-08-30 17:42:00,85.6,76.8,29.88,NE,42,1.0,4.0,75,0.00,,,0.00,162.0,meteohub,2013-08-30 21:42:00,
2013-08-30 17:49:00,85.3,76.1,29.88,ENE,69,0.0,4.0,74,0.00,,,0.00,132.0,meteohub,2013-08-30 21:49:00,
2013-08-30 17:55:00,84.9,76.1,29.88,NE,36,0.0,4.0,75,0.00,,,0.00,127.0,meteohub,2013-08-30 21:55:00,
2013-08-30 18:02:00,84.6,75.7,29.88,NE,50,0.0,4.0,75,0.00,,,0.00,114.0,meteohub,2013-08-30 22:02:00,
2013-08-30 18:07:00,84.4,76.5,29.88,ENE,76,1.0,4.0,77,0.00,,,0.00,102.0,meteohub,2013-08-30 22:07:00,
2013-08-30 18:12:00,84.0,75.6,29.88,ENE,65,2.0,4.0,76,0.00,,,0.00,84.0,meteohub,2013-08-30 22:12:00,
2013-08-30 18:17:00,83.8,75.4,29.89,ENE,57,1.0,5.0,76,0.00,,,0.00,74.0,meteohub,2013-08-30 22:17:00,
2013-08-30 18:23:00,83.3,75.7,29.90,ENE,57,1.0,5.0,78,0.00,,,0.00,62.0,meteohub,2013-08-30 22:23:00,
2013-08-30 18:29:00,82.9,75.4,29.90,NNE,20,0.0,5.0,78,0.00,,,0.00,37.0,meteohub,2013-08-30 22:29:00,
2013-08-30 18:36:00,82.8,75.2,29.89,NNE,21,0.0,4.0,78,0.00,,,0.00,35.0,meteohub,2013-08-30 22:36:00,
2013-08-30 18:42:00,82.6,75.0,29.89,NE,53,1.0,4.0,78,0.00,,,0.00,35.0,meteohub,2013-08-30 22:42:00,
2013-08-30 18:47:00,82.4,75.2,29.89,ENE,58,1.0,4.0,79,0.00,,,0.00,33.0,meteohub,2013-08-30 22:47:00,
2013-08-30 18:52:00,82.0,75.2,29.90,ENE,58,0.0,2.0,80,0.00,,,0.00,23.0,meteohub,2013-08-30 22:52:00,
2013-08-30 18:57:00,82.0,75.6,29.90,ENE,58,0.0,2.0,81,0.00,,,0.00,23.0,meteohub,2013-08-30 22:57:00,
2013-08-30 19:02:00,81.9,75.0,29.90,East,88,1.0,2.0,80,0.00,,,0.00,32.0,meteohub,2013-08-30 23:02:00,
2013-08-30 19:10:00,81.9,75.0,29.91,NE,44,0.0,2.0,80,0.00,,,0.00,9.0,meteohub,2013-08-30 23:10:00,
2013-08-30 19:16:00,81.5,74.3,29.91,ENE,64,2.0,3.0,79,0.00,,,0.00,16.0,meteohub,2013-08-30 23:16:00,
2013-08-30 19:22:00,81.1,73.9,29.91,NNE,33,0.0,3.0,79,0.00,,,0.00,16.0,meteohub,2013-08-30 23:22:00,
2013-08-30 19:27:00,81.0,74.1,29.91,East,96,1.0,3.0,80,0.00,,,0.00,14.0,meteohub,2013-08-30 23:27:00,
2013-08-30 19:32:00,80.6,73.4,29.92,NE,34,4.0,7.0,79,0.00,,,0.00,12.0,meteohub,2013-08-30 23:32:00,
2013-08-30 19:37:00,79.9,72.3,29.92,NE,44,1.0,7.0,78,0.00,,,0.00,7.0,meteohub,2013-08-30 23:37:00,
2013-08-30 19:42:00,79.2,72.1,29.92,NNE,27,3.0,7.0,79,0.00,,,0.00,0.0,meteohub,2013-08-30 23:42:00,
2013-08-30 19:47:00,78.3,71.6,29.92,SE,125,0.0,7.0,80,0.00,,,0.00,0.0,meteohub,2013-08-30 23:47:00,
2013-08-30 19:52:00,76.8,71.6,29.92,NE,56,0.0,5.0,84,0.00,,,0.00,0.0,meteohub,2013-08-30 23:52:00,
2013-08-30 19:59:00,75.4,71.6,29.91,NNE,31,0.0,5.0,88,0.00,,,0.00,0.0,meteohub,2013-08-30 23:59:00,
2013-08-30 20:05:00,74.5,71.6,29.91,NNE,31,0.0,5.0,91,0.00,,,0.03,0.0,meteohub,2013-08-31 00:05:00,
2013-08-30 20:12:00,73.9,71.8,29.91,ESE,119,0.0,5.0,93,0.07,,,0.03,0.0,meteohub,2013-08-31 00:12:00,
2013-08-30 20:17:00,73.8,72.0,29.91,ESE,119,1.0,2.0,94,0.07,,,0.03,0.0,meteohub,2013-08-31 00:17:00,
2013-08-30 20:22:00,73.6,71.8,29.91,ESE,119,0.0,2.0,94,0.07,,,0.04,0.0,meteohub,2013-08-31 00:22:00,
2013-08-30 20:27:00,73.6,72.1,29.91,ESE,119,0.0,2.0,95,0.07,,,0.04,0.0,meteohub,2013-08-31 00:27:00,
2013-08-30 20:32:00,73.6,72.1,29.91,ESE,119,1.0,2.0,95,0.07,,,0.04,0.0,meteohub,2013-08-31 00:32:00,
2013-08-30 20:37:00,73.2,71.8,29.91,ESE,119,0.0,2.0,95,0.07,,,0.04,0.0,meteohub,2013-08-31 00:37:00,
2013-08-30 20:49:00,73.2,71.8,29.92,East,96,0.0,2.0,95,0.07,,,0.04,0.0,meteohub,2013-08-31 00:49:00,
2013-08-30 20:55:00,73.2,71.8,29.93,East,96,0.0,2.0,95,0.07,,,0.04,0.0,meteohub,2013-08-31 00:55:00,
2013-08-30 21:01:00,73.2,72.0,29.93,East,96,0.0,2.0,96,0.07,,,0.04,0.0,meteohub,2013-08-31 01:01:00,
2013-08-30 21:07:00,73.0,71.8,29.93,East,96,0.0,2.0,96,0.07,,,0.04,0.0,meteohub,2013-08-31 01:07:00,
2013-08-30 21:14:00,73.0,71.8,29.94,ESE,103,1.0,1.0,96,0.00,,,0.04,0.0,meteohub,2013-08-31 01:14:00,
2013-08-30 21:20:00,73.0,71.8,29.93,WNW,285,1.0,1.0,96,0.00,,,0.04,0.0,meteohub,2013-08-31 01:20:00,
2013-08-30 21:26:00,73.2,72.0,29.93,WNW,283,1.0,1.0,96,0.00,,,0.04,0.0,meteohub,2013-08-31 01:26:00,
2013-08-30 21:32:00,73.4,72.1,29.93,WNW,283,0.0,3.0,96,0.00,,,0.04,0.0,meteohub,2013-08-31 01:32:00,
2013-08-30 21:37:00,73.4,72.1,29.93,WNW,283,0.0,3.0,96,0.00,,,0.04,0.0,meteohub,2013-08-31 01:37:00,
2013-08-30 21:42:00,73.4,72.1,29.93,WNW,283,0.0,3.0,96,0.00,,,0.04,0.0,meteohub,2013-08-31 01:42:00,
2013-08-30 21:47:00,73.6,72.7,29.94,WNW,283,0.0,3.0,97,0.00,,,0.04,0.0,meteohub,2013-08-31 01:47:00,
2013-08-30 21:52:00,73.4,72.1,29.94,WNW,282,0.0,1.0,96,0.00,,,0.04,0.0,meteohub,2013-08-31 01:52:00,
2013-08-30 21:57:00,73.2,72.0,29.94,WNW,283,0.0,1.0,96,0.00,,,0.04,0.0,meteohub,2013-08-31 01:57:00,
2013-08-30 22:02:00,73.2,72.0,29.94,SW,217,1.0,1.0,96,0.00,,,0.04,0.0,meteohub,2013-08-31 02:02:00,
2013-08-30 22:07:00,73.4,72.1,29.94,SW,217,0.0,1.0,96,0.00,,,0.04,0.0,meteohub,2013-08-31 02:07:00,
2013-08-30 22:12:00,73.6,72.3,29.94,SW,217,1.0,1.0,96,0.00,,,0.04,0.0,meteohub,2013-08-31 02:12:00,
2013-08-30 22:17:00,73.6,72.3,29.93,South,189,0.0,1.0,96,0.00,,,0.04,0.0,meteohub,2013-08-31 02:17:00,
2013-08-30 22:22:00,73.4,72.1,29.93,South,189,0.0,1.0,96,0.00,,,0.04,0.0,meteohub,2013-08-31 02:22:00,
2013-08-30 22:27:00,73.4,72.1,29.94,South,189,0.0,1.0,96,0.00,,,0.04,0.0,meteohub,2013-08-31 02:27:00,
2013-08-30 22:34:00,73.2,72.0,29.94,South,189,0.0,1.0,96,0.00,,,0.04,0.0,meteohub,2013-08-31 02:34:00,
2013-08-30 22:40:00,73.2,72.0,29.94,South,189,0.0,1.0,96,0.00,,,0.04,0.0,meteohub,2013-08-31 02:40:00,
2013-08-30 22:46:00,73.2,72.3,29.94,South,189,0.0,1.0,97,0.00,,,0.04,0.0,meteohub,2013-08-31 02:46:00,
2013-08-30 22:52:00,73.0,72.1,29.94,South,189,0.0,1.0,97,0.00,,,0.04,0.0,meteohub,2013-08-31 02:52:00,
2013-08-30 22:57:00,73.0,72.1,29.94,South,189,0.0,1.0,97,0.00,,,0.04,0.0,meteohub,2013-08-31 02:57:00,
2013-08-30 23:02:00,72.9,72.0,29.94,South,189,0.0,1.0,97,0.00,,,0.04,0.0,meteohub,2013-08-31 03:02:00,
2013-08-30 23:07:00,72.9,71.6,29.94,South,189,0.0,1.0,96,0.00,,,0.04,0.0,meteohub,2013-08-31 03:07:00,
2013-08-30 23:12:00,72.9,72.0,29.94,South,189,0.0,1.0,97,0.00,,,0.04,0.0,meteohub,2013-08-31 03:12:00,
2013-08-30 23:17:00,72.9,72.0,29.94,South,189,0.0,1.0,97,0.00,,,0.04,0.0,meteohub,2013-08-31 03:17:00,
2013-08-30 23:22:00,72.9,72.0,29.94,South,189,0.0,1.0,97,0.00,,,0.04,0.0,meteohub,2013-08-31 03:22:00,
2013-08-30 23:30:00,73.0,72.1,29.93,South,189,0.0,1.0,97,0.00,,,0.04,0.0,meteohub,2013-08-31 03:30:00,
2013-08-30 23:36:00,73.0,72.1,29.93,South,189,0.0,1.0,97,0.00,,,0.04,0.0,meteohub,2013-08-31 03:36:00,
2013-08-30 23:42:00,72.9,72.0,29.93,South,189,0.0,1.0,97,0.00,,,0.04,0.0,meteohub,2013-08-31 03:42:00,
2013-08-30 23:47:00,72.9,72.0,29.93,South,189,0.0,1.0,97,0.00,,,0.04,0.0,meteohub,2013-08-31 03:47:00,
2013-08-30 23:52:00,72.9,72.0,29.93,South,189,0.0,0.0,97,0.00,,,0.04,0.0,meteohub,2013-08-31 03:52:00,
2013-08-30 23:57:00,72.9,72.0,29.93,South,189,0.0,0.0,97,0.00,,,0.04,0.0,meteohub,2013-08-31 03:57:00,